Regional Weather Roundup
Issued by NWS

Home | Current Version | Previous Version | Graphics & Text | Print | Product List | Glossary On
Versions: 1 2 3 4 5 6 7 8 9 10 11 12 13 14 15 16 17 18 19 20 21 22 23 24 25 26 27
000
ASUS45 KSLC 271210
RWRUT

UTAH REGIONAL WEATHER ROUNDUP
NATIONAL WEATHER SERVICE SALT LAKE CITY UT
600 AM MDT MON MAR 27 2017

UTZ001>011-023>025-271300-

NORTHERN UTAH

CITY           SKY/WX    TMP DP  RH WIND       PRES   REMARKS
BRIGHAM CITY     N/A     45  33  64 CALM      29.86F
HILL AFB       CLOUDY    44  31  61 E14       29.86F
LOGAN          CLEAR     40  35  83 NE3       29.86F
OGDEN          MOCLDY    43  32  65 S10       29.85F
SALT LAKE CITY CLOUDY    47  38  71 SE16      29.86F
WENDOVER       RAIN      45  36  70 W16       29.88R
HEBER CITY     CLOUDY    39  30  70 CALM      29.90S

$$

UTZ011>015-024>027-271300-

CENTRAL/NORTHEAST UTAH

CITY           SKY/WX    TMP DP  RH WIND       PRES   REMARKS
PROVO AIRPORT  CLOUDY    45  39  79 SE6       29.91R
MOAB/CANYONLAN CLOUDY    45  28  51 CALM      29.88S
DELTA          CLOUDY    45  34  65 S9        29.86F
PRICE          CLOUDY    40  31  70 NE6       29.90S
ROOSEVELT      CLOUDY    43  34  70 CALM      29.93F
VERNAL         CLOUDY    41  33  73 N5        29.92S

$$

UTZ013>016-019>022-027-271300-

SOUTHERN UTAH

CITY           SKY/WX    TMP DP  RH WIND       PRES   REMARKS
BRYCE CANYON   CLOUDY    32  26  78 CALM      29.96F
CEDAR CITY     CLOUDY    43  31  62 SW5       29.86F
MILFORD        CLOUDY    41  33  73 W9        29.87S
ST GEORGE      CLOUDY    50  34  54 S3        29.85
HANKSVILLE     CLOUDY    43  28  56 CALM      29.90F
BLANDING       MOCLDY    40  24  53 NE6       30.03S

$$

REGIONAL REPORTS     COLORADO/ARIZONA

CITY           SKY/WX    TMP DP  RH WIND       PRES   REMARKS
CRAIG, CO      CLOUDY    29  25  85 CALM      29.96S
GRAND JUNCTION CLOUDY    45  29  53 E9        29.91S
RIFLE, CO      CLOUDY    37  30  75 CALM      29.96S
MONTROSE, CO   CLOUDY    38  29  70 SE9       29.98R WCI  31
CORTEZ, CO     MOCLDY    28  26  92 CALM      29.99S
COLORADO CITY  CLOUDY    41  36  81 CALM      29.94S
PAGE, AZ       MOCLDY    50  33  52 W3        29.90F
GRAND CANYON   CLOUDY    28  26  92 CALM      29.99F
KINGMAN, AZ    PTCLDY    50  24  36 S8        29.88F
FLAGSTAFF, AZ  PTCLDY    29  24  82 CALM      30.01F

$$

REGIONAL REPORTS    NEVADA/IDAHO/WYOMING

CITY           SKY/WX    TMP DP  RH WIND       PRES   REMARKS
LAS VEGAS, NV  CLEAR     60  37  42 S18G28    29.78F
ELY, NY        LGT RAIN  36  33  89 W9        29.92R WCI  29
ELKO, NV       CLOUDY    38  33  82 S7        29.91R WCI  33
POCATELLO, ID  CLOUDY    40  36  86 CALM      29.86F
BURLEY, ID     CLOUDY    39  35  86 W8        29.88R WCI  33
EVANSTON, WY   FLURRIES  34  25  69 SW7       29.92S WCI  28
ROCK SPRINGS,  CLOUDY    35  25  66 NW6       29.93F WCI  30
KEMMERER, WY     N/A     30  27  86 N6        29.93F WCI  24

$$




USA.gov is the U.S. government's official web portal to all federal, state and local government web resources and services.